Location: Ostrava
(49.8330°N, 18.2830°E)
Time: 13:40:27
(UTC+01:00)

Iridium 7 - Visible Passes

Search period start: 26 November 2014 00:00
Search period end: 06 December 2014 00:00
Orbit: 776 x 779 km, 86.4° (Epoch: 25 November)

Date Brightness Start Highest point End Pass type
(mag) Time Alt. Az. Time Alt. Az. Time Alt. Az.
26 Nov 7.0 05:35:03 10° N 05:39:55 38° ENE 05:44:44 10° SE visible
26 Nov 7.6 18:36:23 10° S 18:37:02 14° S 18:37:02 14° S visible
27 Nov 7.8 05:01:58 10° NNE 05:06:06 23° ENE 05:10:13 10° SE visible
27 Nov 5.7 06:42:07 10° NNW 06:47:13 56° W 06:52:16 10° SSW visible
27 Nov 7.1 18:03:19 10° SSE 18:05:00 20° SE 18:05:00 20° SE visible
27 Nov 7.9 19:44:18 10° SW 19:45:34 16° SW 19:45:34 16° SW visible
28 Nov 8.4 04:29:24 10° NE 04:32:09 14° ENE 04:34:54 10° E visible
28 Nov 5.6 06:08:28 10° N 06:13:44 87° E 06:18:56 10° S visible
28 Nov 6.9 17:30:46 10° SE 17:33:02 20° ESE 17:33:02 20° ESE visible
28 Nov 6.6 19:10:07 10° SSW 19:13:37 39° SW 19:13:37 39° SW visible
29 Nov 6.4 05:35:01 10° N 05:40:07 52° E 05:45:11 10° SSE visible
29 Nov 7.1 16:58:59 10° ESE 17:01:10 14° E 17:01:10 14° E visible
29 Nov 5.4 18:36:23 10° S 18:41:36 89° W 18:41:45 85° N visible
29 Nov 8.2 20:20:17 10° W 20:22:20 14° WNW 20:22:20 14° WNW visible
30 Nov 7.3 05:01:45 10° NNE 05:06:23 31° ENE 05:10:59 10° SE visible
30 Nov 6.0 06:42:22 10° NNW 06:47:13 40° W 06:52:02 10° SSW visible
30 Nov 5.5 18:03:05 10° SSE 18:08:07 54° E 18:10:02 35° NNE visible
30 Nov 7.6 19:45:02 10° SW 19:49:12 24° WNW 19:50:38 21° NW visible
01 Dec 8.1 04:28:49 10° NNE 04:32:31 19° ENE 04:36:12 10° ESE visible
01 Dec 5.5 06:08:36 10° N 06:13:48 69° W 06:18:58 10° S visible
01 Dec 6.1 17:30:12 10° SE 17:34:46 32° E 17:38:35 14° NNE visible
01 Dec 6.8 19:10:33 10° SSW 19:15:24 39° WNW 19:19:13 16° NNW visible
02 Dec 8.5 03:56:45 10° NE 03:58:31 12° ENE 04:00:16 10° E visible
02 Dec 5.8 05:35:02 10° N 05:40:16 71° E 05:45:27 10° S visible
02 Dec 6.7 16:57:54 10° ESE 17:01:31 20° ENE 17:05:10 10° NNE visible
02 Dec 5.8 18:36:33 10° SSW 18:41:43 66° W 18:46:55 10° N visible
02 Dec 8.5 20:22:27 10° WNW 20:23:33 11° WNW 20:24:39 10° NW visible
03 Dec 6.7 05:01:39 10° N 05:06:37 42° E 05:11:32 10° SSE visible
03 Dec 6.3 06:42:42 10° NNW 06:47:10 30° W 06:51:38 10° SW visible
03 Dec 7.2 16:26:45 10° E 16:28:24 11° ENE 16:30:03 10° NE visible
03 Dec 5.4 18:02:59 10° S 18:08:10 75° E 18:13:23 10° N visible
03 Dec 8.0 19:46:02 10° WSW 19:49:31 18° WNW 19:53:01 10° NNW visible
04 Dec 7.6 04:28:30 10° NNE 04:32:49 26° ENE 04:37:07 10° SE visible
04 Dec 5.7 06:08:48 10° NNW 06:13:50 50° W 06:18:50 10° SSW visible
04 Dec 5.8 17:29:50 10° SSE 17:34:44 44° E 17:39:39 10° NNE visible
04 Dec 7.3 19:11:08 10° SW 19:15:38 29° WNW 19:20:09 10° NNW visible
05 Dec 8.3 03:55:46 10° NNE 03:58:54 16° ENE 04:02:01 10° ESE visible
05 Dec 5.4 05:35:07 10° N 05:40:22 84° W 05:45:34 10° S visible
05 Dec 6.4 16:57:09 10° SE 17:01:25 26° E 17:05:41 10° NNE visible
05 Dec 6.4 18:36:51 10° SSW 18:41:52 48° W 18:46:55 10° N visible
